铱星星座 42星 (IRIDIUM 42)

导读 | 豆包AI

IRIDIUM 42(铱星42)是美国铱星卫星通信系统的成员,由美国于1997年12月8日发射升空,运行在近地点约769公里、远地点约772公里的近地轨道,轨道倾角约86.4度,周期约100分钟。它与其他铱星共同组网,为全球航空、航海及应急领域提供语音通信和数据传输服务,目前已完成服役退役。

基本信息
目录编号:
25077
目录名称:
IRIDIUM 42
国际标识:
1997-077A
轨道中心:
EARTH
卫星名称:
铱星星座 42星
卫星全名:
铱星星座 42星 (IRIDIUM 42)
卫星状态:
在轨 (已飞行10324 天)
发射日期:
1997-12-08 UTC
国别 :
美国 (US)
星等 :
--
轨道信息
数据来源 国际轨道数据 AOE轨道数据
星历时间 2026-03-15T04:50:48+0800
13小时前
查看轨道信息
2026-03-10T11:00:00+0800
5天前
查看轨道信息
半长轴 7147.805km 7147.789km
偏心率 0.000171 0.0001359
轨道倾角 86.396° 86.397°
近地点辐角 76.966° 97.378°
升交点赤经 125.880° 127.870°
平近点角 283.173° 225.102°
近地点 768.445km 768.68km
远地点 770.891km 770.624km
周期 100.235分钟 100.235分钟
每日圈数 14.366262 14.366309
详细信息
平衡模式:
三轴稳定
覆盖范围:
全球
运营商:
铱星通信公司
运营商所在国:
美国
使用方式:
暂无
卫星简介
铱星(Iridium)是由共66个运作中的通信卫星组成的卫星通信系统。这个系统原本规划77个通信卫星,所以用原子序数为77的铱元素来命名。铱卫星允许人们使用手持型电子设备进行全球性的语音及数据通讯。该卫星已退役。
2D轨道图
3D轨道图
轨道高度分析图
轨道倾角分析图
轨道综合分析图
查看轨道综合分析图